[[{"header":{"parameterUnit":"m.s-1","parameterCategory":1,"la1":30.2991,"la2":30.254,"lo1":-89.0895,"lo2":-89.0444,"dy":0.0017,"dx":0.0017,"nx":28,"ny":28,"refTime":"2023-08-16T21:00:00:Z","depth":0,"parameterNumber":2,"parameterNumberName":"U-component_of_WINDS"},"data":[0,0,0,0,0,0,0,0,0,0,0,0,0,0,0,0,0,0,0,0,0,0,0,0,0,0,0,0,0,0,0,0,0,0,0,0,0,0,0,0,0,0,0,0,0,0,0,0,0,0,0,0,0,0,0,0,0,0,5.2307,5.2308,0,5.239,5.2391,5.2391,5.2318,5.2315,5.2312,5.2309,5.2391,5.2396,5.2401,0,0,0,0,0,0,0,0,0,0,0,0,0,5.208,5.2085,5.2307,5.2308,5.2309,5.2389,5.2391,5.2392,5.2319,5.2315,5.2311,5.2308,5.239,5.2396,5.2402,0,0,0,0,0,0,0,0,0,0,0,0,0,5.2173,5.2086,5.2307,5.2282,5.2281,5.2389,5.2391,5.2392,5.2319,5.2315,5.231,5.2306,5.2388,5.2395,5.2402,5.2538,0,0,5.2425,5.2428,0,0,0,0,0,0,0,0,5.2167,5.2181,5.2285,5.2284,5.2283,5.2339,5.2341,5.2441,5.232,5.2305,5.2309,5.2304,5.2377,5.2385,5.2411,5.2542,5.2546,5.2426,5.243,5.2434,5.2436,0,0,0,0,0,0,0,5.2161,5.2177,5.2339,5.2286,5.2285,5.2265,5.2274,5.2359,5.2365,5.2306,5.2301,5.2312,5.2376,5.2404,5.2412,5.2547,5.2426,5.2432,5.2437,5.244,5.2789,5.2793,0,0,0,0,0,0,5.2158,5.2172,5.2337,5.2342,5.2213,5.2273,5.2282,5.2325,5.2364,5.2366,5.2315,5.2308,5.2393,5.2403,5.2415,5.2572,5.2433,5.244,5.2445,5.2784,5.279,5.2795,0,0,0,0,0,0,5.2153,5.2173,5.2333,5.2256,5.2275,5.2282,5.2331,5.2329,5.2357,5.2371,5.2371,5.2343,5.239,5.2404,5.2507,5.2574,5.2444,5.2451,5.2778,5.2786,5.2792,5.2891,0,0,0,0,0,0,5.2147,5.2172,5.2225,5.2257,5.2279,5.2426,5.2335,5.2334,5.237,5.2361,5.2397,5.2399,5.2388,5.2496,5.2515,5.2582,5.2456,5.2772,5.2782,5.279,5.2881,5.29,5.2916,0,0,0,0,0,5.2139,5.225,5.2228,5.2248,5.2346,5.243,5.2442,5.2428,5.2376,5.2428,5.2437,5.2398,5.2565,5.2508,5.2527,5.2598,5.2768,5.2779,5.2789,5.2873,5.2896,5.2916,0,0,0,0,0,0,5.2225,5.2254,5.223,5.2355,5.2391,5.2418,5.2483,5.2454,5.2504,5.2494,5.2473,5.2482,5.2589,5.2605,5.254,5.2729,5.2658,5.2673,5.2715,5.2737,5.2754,5.2746,5.2463,0,0,0,0,0,5.2259,5.2326,5.2347,5.2455,5.2475,5.2476,5.2513,5.2498,5.2534,5.2549,5.2565,5.26,5.266,5.27,5.2756,5.2884,5.2888,5.2942,5.296,5.2974,5.2986,5.305,5.3073,5.283,5.283,5.283,0,0,5.2328,5.2352,5.2396,5.2473,5.2499,5.2567,5.2489,5.2566,5.2615,5.256,5.2657,5.267,5.2708,5.2823,5.2874,5.2839,5.3055,5.2988,5.2999,5.3004,5.3064,5.3086,5.3107,5.2838,5.2836,5.2835,0,0,5.2488,5.2516,5.2606,5.2634,5.2674,5.2674,5.2696,5.2728,5.2734,5.2831,5.279,5.2848,5.2954,5.298,5.3008,5.3177,5.3141,5.3196,5.3286,5.3348,5.3367,5.3384,5.3439,5.346,5.3209,5.3209,5.3209,0,5.2569,5.2671,5.2656,5.2735,5.2768,5.2722,5.2811,5.2839,5.2895,5.2918,5.2878,5.3006,5.3029,5.3147,5.3188,5.3214,5.3235,5.319,5.3366,5.3383,5.3398,5.345,5.3472,5.3215,5.3215,5.3214,5.3213,0,5.2766,5.2838,5.2906,5.2961,5.3002,5.3086,5.3081,5.3125,5.3107,5.311,5.3208,5.3233,5.3292,5.332,5.3304,5.3435,5.3411,5.337,5.3296,5.3428,5.3476,5.3496,5.3224,5.3222,5.322,5.3218,0,0,5.2981,5.3026,5.3051,5.3073,5.3114,5.3168,5.3248,5.3306,5.3341,5.3382,5.3446,5.3535,5.3496,5.3527,5.3514,5.357,5.3695,5.352,5.3521,5.3547,5.3835,5.3862,5.3886,5.3673,5.3677,5.368,5.383,0,5.3139,5.3279,5.3267,5.3398,5.3461,5.3418,5.3488,5.3519,5.3524,5.3577,5.3583,5.3644,5.3591,5.3608,5.3662,5.3669,5.3752,5.3658,5.3729,5.3731,5.3716,5.3912,5.3942,5.4082,5.3849,5.3853,5.3855,0,5.3342,5.3388,5.3526,5.3553,5.3579,5.3642,5.3691,5.3744,5.3778,5.3777,5.3812,5.3788,5.3866,5.3794,5.3899,5.3836,5.3864,5.3872,5.3877,5.3879,5.3798,5.3915,5.4127,5.4146,5.3886,5.3884,5.3881,0,5.3478,5.3576,5.3669,5.3691,5.3727,5.3771,5.3788,5.3817,5.3851,5.3895,5.3916,5.3968,5.3996,5.4036,5.4026,5.3975,5.4131,5.406,5.4129,5.413,5.4161,5.4158,5.4375,5.4188,5.4187,5.4187,5.4187,0,5.3653,5.3737,5.373,5.3788,5.388,5.3865,5.3956,5.3967,5.3993,5.405,5.4018,5.4071,5.4057,5.4109,5.4102,5.4187,5.4201,5.42,5.4196,5.4201,5.42,5.4215,5.4203,5.4193,5.4191,5.419,5.4189,0,5.3819,5.3819,5.3917,5.3942,5.3951,5.4017,5.4038,5.409,5.4093,5.4165,5.4181,5.4185,5.4244,5.4239,5.4307,5.4302,5.4405,5.4393,5.4394,5.4389,5.4457,5.4449,5.4688,5.4716,5.4515,5.4517,5.4519,0,5.3928,5.3992,5.4024,5.4059,5.4079,5.4138,5.4171,5.4159,5.4196,5.4237,5.4283,5.434,5.4384,5.4482,5.4489,5.4539,5.4524,5.4605,5.4531,5.4532,5.4519,5.4513,5.4517,5.4618,5.462,5.4622,5.4623,0,5.412,5.4116,5.4167,5.4217,5.4259,5.4298,5.4333,5.4364,5.4355,5.4397,5.4458,5.4492,5.456,5.4615,5.4663,5.4678,5.4648,5.4647,5.4665,5.4667,5.4663,5.466,5.4427,5.464,5.4639,5.4637,5.4637,5.4636,5.4257,5.431,5.4339,5.4396,5.4422,5.4455,5.4504,5.4513,5.4563,5.4617,5.4607,5.4674,5.4703,5.4763,5.4783,5.4834,5.4804,5.4831,5.4837,5.4843,5.4848,5.4659,5.4843,5.4842,5.4842,5.4842,5.4841,0,5.4442,5.4459,5.4512,5.4562,5.4606,5.4576,5.4613,5.4651,5.471,5.474,5.4784,5.4851,5.4904,5.4916,5.4966,5.5004,5.4991,5.5017,5.5011,5.5014,5.4874,5.4851,5.5026,5.5026,5.5026,5.5026,5.5026,5.5026,5.4543,5.4629,5.4629,5.4726,5.4742,5.4807,5.483,5.4859,5.4883,5.4959,5.5003,5.5011,5.5032,5.5083,5.5129,5.5131,5.5149,5.5179,5.5175,5.5043,5.5024,5.5007,5.4985,5.5184,5.5185,5.531,5.5311,5.5312]},{"header":{"parameterUnit":"m.s-1","parameterCategory":1,"la1":30.2991,"la2":30.254,"lo1":-89.0895,"lo2":-89.0444,"dy":0.0017,"dx":0.0017,"nx":28,"ny":28,"refTime":"2023-08-16T21:00:00:Z","depth":0,"parameterNumber":3,"parameterNumberName":"V-component_of_WINDS"},"data":[0,0,0,0,0,0,0,0,0,0,0,0,0,0,0,0,0,0,0,0,0,0,0,0,0,0,0,0,0,0,0,0,0,0,0,0,0,0,0,0,0,0,0,0,0,0,0,0,0,0,0,0,0,0,0,0,0,0,4.4632,4.4633,0,4.4723,4.4724,4.4725,4.4697,4.4695,4.4693,4.4692,4.4779,4.4783,4.4787,0,0,0,0,0,0,0,0,0,0,0,0,0,4.4427,4.4431,4.4632,4.4633,4.4634,4.4722,4.4724,4.4725,4.4697,4.4695,4.4693,4.4691,4.4778,4.4783,4.4788,0,0,0,0,0,0,0,0,0,0,0,0,0,4.4517,4.4433,4.4631,4.4631,4.4632,4.4722,4.4724,4.4725,4.4698,4.4695,4.4692,4.469,4.4776,4.4782,4.4788,4.4883,0,0,4.4807,4.481,0,0,0,0,0,0,0,0,4.4512,4.4524,4.463,4.4631,4.4632,4.4696,4.4684,4.4778,4.4699,4.4673,4.4692,4.4688,4.4753,4.4761,4.4784,4.4887,4.4891,4.4808,4.4811,4.4814,4.4816,0,0,0,0,0,0,0,4.4506,4.452,4.4667,4.4631,4.4633,4.4624,4.4634,4.4701,4.4728,4.4675,4.4673,4.4684,4.4753,4.4778,4.4786,4.4892,4.4807,4.4813,4.4817,4.4819,4.5073,4.5076,0,0,0,0,0,0,4.45,4.4515,4.4664,4.467,4.4564,4.463,4.4641,4.4678,4.4727,4.4732,4.4687,4.4683,4.4769,4.4779,4.4789,4.4901,4.4814,4.482,4.4823,4.507,4.5074,4.5077,0,0,0,0,0,0,4.4495,4.4513,4.4661,4.4592,4.4611,4.4637,4.4679,4.4681,4.4706,4.4736,4.474,4.4708,4.4768,4.478,4.4859,4.4904,4.4822,4.4828,4.5067,4.5071,4.5076,4.5126,0,0,0,0,0,0,4.449,4.4512,4.455,4.4594,4.4614,4.4732,4.4682,4.4685,4.4718,4.4713,4.4757,4.4761,4.4766,4.485,4.4866,4.4911,4.4833,4.5063,4.5069,4.5074,4.5121,4.5132,4.5142,0,0,0,0,0,4.4482,4.456,4.4552,4.457,4.4663,4.4734,4.4746,4.4752,4.4722,4.4758,4.4777,4.476,4.4897,4.4859,4.4876,4.4923,4.506,4.5067,4.5074,4.5116,4.513,4.5142,0,0,0,0,0,0,4.4519,4.4566,4.4557,4.4652,4.4689,4.473,4.4777,4.4767,4.4813,4.4806,4.481,4.482,4.49,4.492,4.4877,4.5015,4.4973,4.4984,4.5,4.5013,4.5024,4.5016,4.4838,0,0,0,0,0,4.4538,4.4595,4.4632,4.4711,4.4731,4.4751,4.4782,4.4783,4.4822,4.4837,4.4862,4.4898,4.4949,4.4982,4.5031,4.5124,4.5131,4.5164,4.5175,4.5183,4.5192,4.524,4.5254,4.51,4.51,4.51,0,0,4.4578,4.4611,4.4646,4.4719,4.4749,4.4805,4.4764,4.4826,4.4866,4.4846,4.4922,4.4941,4.4982,4.5067,4.5106,4.5086,4.5236,4.5192,4.5199,4.5203,4.5248,4.5263,4.5276,4.5105,4.5104,4.5103,0,0,4.4679,4.4711,4.4779,4.481,4.4855,4.4868,4.4884,4.4926,4.4938,4.5015,4.5,4.5048,4.5136,4.5165,4.5191,4.5302,4.5286,4.5317,4.5371,4.5418,4.543,4.5441,4.5477,4.5491,4.5326,4.5326,4.5326,0,4.4722,4.4808,4.4815,4.4878,4.4909,4.4895,4.4963,4.4991,4.505,4.5071,4.5048,4.5157,4.5183,4.5274,4.5301,4.5324,4.534,4.5312,4.5428,4.5439,4.5449,4.5484,4.5498,4.5329,4.5329,4.5329,4.5328,0,4.4858,4.4918,4.4967,4.5025,4.5062,4.5127,4.5141,4.5178,4.5175,4.519,4.5266,4.5297,4.5351,4.5373,4.5371,4.5463,4.5449,4.5427,4.5384,4.5467,4.55,4.5513,4.5334,4.5333,4.5332,4.5331,0,0,4.4984,4.5045,4.5063,4.5088,4.5137,4.5182,4.5245,4.5299,4.5328,4.5369,4.542,4.5495,4.5474,4.5504,4.5505,4.5546,4.5628,4.5519,4.552,4.5536,4.5728,4.5743,4.5759,4.5619,4.5622,4.5624,4.5724,0,4.5087,4.5201,4.5208,4.5309,4.5362,4.5349,4.5403,4.5437,4.5452,4.5498,4.5513,4.5565,4.5535,4.5553,4.5593,4.561,4.5667,4.5603,4.5664,4.5666,4.5653,4.5777,4.5793,4.5886,4.5737,4.574,4.5741,0,4.5223,4.5269,4.5376,4.5415,4.5438,4.5487,4.5536,4.5581,4.5618,4.5625,4.5659,4.5653,4.5715,4.5672,4.5755,4.5711,4.5737,4.5749,4.5752,4.5757,4.5707,4.5782,4.5916,4.5929,4.5762,4.576,4.5759,0,4.5302,4.539,4.5465,4.5487,4.5535,4.557,4.5591,4.5626,4.5657,4.5699,4.5719,4.5767,4.5793,4.583,4.5836,4.5805,4.5919,4.5877,4.5925,4.5924,4.5948,4.5946,4.6086,4.5968,4.5968,4.5967,4.5967,0,4.5415,4.548,4.55,4.5546,4.5618,4.5624,4.5694,4.5713,4.5744,4.5791,4.5782,4.5826,4.5834,4.5879,4.5884,4.5951,4.5963,4.5969,4.5969,4.5969,4.5968,4.5984,4.5977,4.5971,4.597,4.5969,4.5969,0,4.5514,4.5531,4.5611,4.565,4.5662,4.5712,4.5745,4.5787,4.5801,4.586,4.5874,4.5895,4.5947,4.5958,4.602,4.6023,4.6102,4.6097,4.609,4.6088,4.6135,4.6129,4.6288,4.6308,4.6179,4.618,4.6181,0,4.5585,4.5635,4.568,4.5711,4.5735,4.5786,4.5818,4.5826,4.5859,4.5905,4.5941,4.5993,4.6034,4.6118,4.6137,4.6183,4.6177,4.623,4.6184,4.6181,4.6175,4.6172,4.6175,4.6238,4.6239,4.624,4.6241,0,4.5707,4.5713,4.576,4.581,4.5849,4.5888,4.5926,4.5952,4.5964,4.6001,4.6056,4.6088,4.6151,4.6201,4.6247,4.6267,4.6255,4.6256,4.6269,4.6268,4.6261,4.6263,4.6111,4.6252,4.6251,4.625,4.6249,4.6249,4.5793,4.5836,4.5874,4.5926,4.5955,4.599,4.6031,4.605,4.6096,4.6149,4.615,4.6209,4.6242,4.6304,4.6326,4.637,4.6353,4.6373,4.6377,4.6381,4.6384,4.6256,4.6378,4.6378,4.6378,4.6378,4.6377,0,4.5912,4.5936,4.5985,4.6038,4.6078,4.6067,4.6107,4.6141,4.6193,4.6226,4.6267,4.6328,4.6377,4.6399,4.6446,4.6477,4.6473,4.6489,4.6485,4.6489,4.6398,4.6381,4.6491,4.6491,4.6491,4.6491,4.6491,4.6491,4.598,4.6051,4.606,4.6145,4.6168,4.6226,4.625,4.6281,4.6307,4.6376,4.6417,4.6432,4.646,4.6509,4.6552,4.6557,4.6574,4.6592,4.6594,4.6508,4.6496,4.6485,4.6469,4.6596,4.6596,4.6682,4.6682,4.6683]}]]